This is the latest recevied weather packets stored in our database for station/object NK2J. If no packets are shown the sender has not sent any weather packets the latest 10 day(s).
| Time | Temp. | Humidity | Pressure | Rain* | Wind** | Luminosity | Snow |
|---|---|---|---|---|---|---|---|
| 1777152359 | 27.22° C | 22% | 1010.9 hPa | 0 mm | - | 640 W/m² | - |
| 1777152054 | 27.22° C | 23% | 1010.8 hPa | 0 mm | - | 660 W/m² | - |
| 1777151750 | 27.22° C | 22% | 1010.9 hPa | 0 mm | - | 670 W/m² | - |
| 1777151447 | 27.22° C | 23% | 1010.9 hPa | 0 mm | - | 684 W/m² | - |
| 1777151143 | 27.22° C | 22% | 1011.1 hPa | 0 mm | - | 752 W/m² | - |
| 1777150837 | 26.67° C | 23% | 1011.1 hPa | 0 mm | - | 524 W/m² | - |
| 1777150532 | 26.67° C | 23% | 1011.2 hPa | 0 mm | - | 841 W/m² | - |
| 1777150228 | 27.22° C | 24% | 1011.3 hPa | 0 mm | - | 249 W/m² | - |
| 1777149927 | 27.22° C | 22% | 1011.2 hPa | 0 mm | - | 725 W/m² | - |
| 1777149621 | 26.11° C | 24% | 1011.3 hPa | 0 mm | - | 787 W/m² | - |
| 1777149319 | 26.67° C | 23% | 1011.4 hPa | 0 mm | - | 590 W/m² | - |
| 1777149014 | 26.11° C | 25% | 1011.4 hPa | 0 mm | - | 483 W/m² | - |
| 1777148709 | 26.67° C | 23% | 1011.4 hPa | 0 mm | - | 347 W/m² | - |
| 1777148405 | 26.67° C | 23% | 1011.5 hPa | 0 mm | - | 665 W/m² | - |
| 1777148102 | 26.11° C | 24% | 1011.5 hPa | 0 mm | - | 694 W/m² | - |
| 1777147797 | 26.67° C | 23% | 1011.5 hPa | 0 mm | - | 931 W/m² | - |
| 1777147494 | 26.67° C | 23% | 1011.6 hPa | 0 mm | - | 804 W/m² | - |
| 1777147189 | 26.11° C | 24% | 1011.6 hPa | 0 mm | - | 473 W/m² | - |
| 1777146885 | 26.11° C | 24% | 1011.9 hPa | 0 mm | - | 391 W/m² | - |
| 1777146582 | 26.11° C | 24% | 1011.5 hPa | 0 mm | - | 409 W/m² | - |
| 1777146277 | 26.11° C | 24% | 1011.6 hPa | 0 mm | - | 492 W/m² | - |
| 1777145974 | 25.56° C | 24% | 1011.6 hPa | 0 mm | - | 468 W/m² | - |
| 1777145670 | 25.56° C | 23% | 1011.6 hPa | 0 mm | - | 422 W/m² | - |
| 1777145366 | 25.56° C | 23% | 1011.7 hPa | 0 mm | - | 347 W/m² | - |
| 1777145060 | 26.11° C | 22% | 1011.8 hPa | 0 mm | - | 346 W/m² | - |
* Rain latest hour (hover to see other rain measurements)
** Current wind speed in m/s (hover to see current wind gust speed)